CW2882 Weather Reports


Display with metric or nautical units.
time (UTC)temp
F
wind
direction
speed
MPH
gust
MPH
rain 1hr
in
rain 24hr
in
rain mn
in
humidity
%
barometer
mb
20260902044546 62 165 1.0 4.0 0.00 0.00 0.00 85 1009.2
20260902043043 62 117 1.0 5.0 0.00 0.00 0.00 84 1009.3
20260902041542 63 117 0.0 1.0 0.00 0.00 0.00 83 1009.3
20260902040042 62 143 0.0 1.0 0.00 0.00 0.00 83 1009.2
20260902034555 62 118 1.0 4.0 0.00 0.00 0.00 83 1009.2
20260902033046 61 251 0.0 0.0 0.00 0.00 0.00 82 1009.2
20260902031540 61 251 0.0 0.0 0.00 0.00 0.00 82 1009.2
20260902030039 61 196 0.0 1.0 0.00 0.00 0.00 82 1009.1
20260902024539 61 154 0.0 3.0 0.00 0.00 0.00 82 1009.1
20260902023043 61 221 0.0 4.0 0.00 0.00 0.00 82 1009.2
20260902021538 61 179 1.0 5.0 0.00 0.00 0.00 81 1009.2
20260902020041 62 236 0.0 3.0 0.00 0.00 0.00 80 1009.1
20260902014539 62 240 0.0 4.0 0.00 0.00 0.00 80 1009.3
20260902013040 62 153 0.0 4.0 0.00 0.00 0.00 80 1009.3
20260902011536 63 118 0.0 2.0 0.00 0.00 0.00 79 1009.3
20260902010036 63 207 0.0 2.0 0.00 0.00 0.00 79 1009.2
20260902004535 63 136 0.0 2.0 0.00 0.00 0.00 79 1009.3
20260902003036 63 208 0.0 2.0 0.00 0.00 0.00 79 1009.3
20260902001548 63 150 0.0 2.0 0.00 0.00 0.00 81 1009.2
20260902000040 62 146 1.0 6.0 0.00 0.00 0.00 83 1009.3
20260901234533 62 219 0.0 4.0 0.00 0.00 0.00 82 1009.4
20260901233047 63 162 1.0 4.0 0.00 0.00 0.00 82 1009.4
20260901231532 63 254 1.0 6.0 0.00 0.00 0.00 82 1009.3
20260901230031 63 160 3.0 7.0 0.00 0.00 0.00 81 1009.3
20260901224531 64 92 2.0 6.0 0.00 0.00 0.00 80 1009.3
20260901223030 64 189 1.0 7.0 0.00 0.00 0.00 80 1009.3
20260901221528 65 127 1.0 7.0 0.00 0.00 0.00 81 1009.4
20260901220040 65 120 1.0 7.0 0.00 0.00 0.00 79 1009.4
20260901214528 66 152 1.0 6.0 0.00 0.00 0.00 79 1009.5
20260901213026 65 176 2.0 7.0 0.00 0.00 0.00 80 1009.7
20260901211533 65 187 2.0 6.0 0.00 0.00 0.00 79 1009.8
20260901210023 64 248 2.0 7.0 0.00 0.00 0.00 80 1009.9
20260901204524 64 130 2.0 6.0 0.00 0.00 0.00 81 1009.9
20260901203032 64 246 2.0 8.0 0.00 0.00 0.00 82 1009.9
20260901201519 64 203 2.0 8.0 0.00 0.00 0.00 81 1010.0
20260901200018 63 198 2.0 8.0 0.00 0.00 0.00 83 1009.8
20260901194517 62 136 2.0 9.0 0.00 0.00 0.00 83 1009.8
20260901193017 62 288 2.0 8.0 0.00 0.00 0.00 84 1009.9
20260901191517 62 116 4.0 9.0 0.00 0.00 0.00 85 1010.0
20260901190016 62 255 4.0 11.0 0.00 0.00 0.00 85 1010.1
20260901184515 63 222 2.0 7.0 0.00 0.00 0.00 83 1010.1
20260901183012 63 226 3.0 7.0 0.00 0.00 0.00 82 1010.0
20260901181515 62 222 2.0 8.0 0.00 0.00 0.00 83 1010.0
20260901180009 62 238 1.0 6.0 0.00 0.00 0.00 83 1010.1
20260901174508 62 226 3.0 7.0 0.00 0.00 0.00 83 1009.9
20260901173006 61 217 2.0 7.0 0.00 0.00 0.00 85 1009.9
20260901171504 61 281 0.0 4.0 0.00 0.00 0.00 87 1009.9
20260901170119 59 312 0.0 2.0 0.00 0.00 0.00 89 1009.9
20260901164606 59 302 0.0 0.0 0.00 0.00 0.00 90 1010.0
20260901163058 59 285 0.0 0.0 0.00 0.00 0.00 91 1010.0
20260901161559 57 285 0.0 0.0 0.00 0.00 0.00 92 1010.0
20260901160056 57 285 0.0 0.0 0.00 0.00 0.00 92 1010.0
20260901154602 57 279 0.0 0.0 0.00 0.00 0.00 92 1010.0
20260901153052 57 279 0.0 0.0 0.00 0.00 0.00 93 1010.0
20260901151554 57 279 0.0 0.0 0.00 0.00 0.00 93 1010.0
20260901150100 56 279 0.0 0.0 0.00 0.00 0.00 94 1009.9
20260901144548 56 279 0.0 2.0 0.00 0.00 0.00 95 1009.7
20260901143047 55 197 0.0 3.0 0.00 0.00 0.00 96 1009.7
20260901141544 55 143 0.0 2.0 0.00 0.00 0.00 96 1009.6
20260901140042 54 150 0.0 5.0 0.00 0.00 0.00 96 1009.5
20260901134543 54 143 2.0 5.0 0.00 0.00 0.00 96 1009.3
20260901133039 53 179 1.0 6.0 0.00 0.00 0.00 96 1009.0
20260901131546 53 199 0.0 4.0 0.00 0.00 0.00 96 1009.0
20260901130037 53 136 0.0 1.0 0.00 0.00 0.00 95 1008.9
20260901124537 53 109 0.0 1.0 0.00 0.00 0.00 95 1008.9
20260901123039 53 165 0.0 3.0 0.00 0.00 0.00 95 1008.9
20260901121536 53 150 0.0 2.0 0.00 0.00 0.00 95 1008.9
20260901120034 53 161 0.0 2.0 0.00 0.00 0.00 94 1009.0
20260901114540 53 154 0.0 1.0 0.00 0.00 0.00 94 1009.2
20260901113031 53 131 0.0 3.0 0.00 0.00 0.00 93 1009.3
20260901111530 53 129 1.0 2.0 0.00 0.00 0.00 93 1009.1
20260901110029 54 161 0.0 0.0 0.00 0.00 0.00 92 1009.1
20260901104528 54 176 0.0 2.0 0.00 0.00 0.00 92 1009.1
20260901103025 54 122 0.0 3.0 0.00 0.00 0.00 91 1009.1
20260901101525 54 160 0.0 3.0 0.00 0.00 0.00 91 1009.2
20260901100024 54 150 0.0 0.0 0.00 0.00 0.00 91 1009.2
20260901094531 54 166 0.0 3.0 0.00 0.00 0.00 91 1009.0
20260901093022 54 146 0.0 0.0 0.00 0.00 0.00 91 1009.0
20260901091521 55 160 0.0 2.0 0.00 0.00 0.00 91 1009.1
20260901090021 55 148 0.0 2.0 0.00 0.00 0.00 91 1009.0
20260901084531 55 157 0.0 2.0 0.00 0.00 0.00 91 1009.0
20260901083019 55 138 0.0 0.0 0.00 0.00 0.00 89 1009.0
20260901081517 56 200 0.0 1.0 0.00 0.00 0.00 88 1009.1
20260901080018 56 162 0.0 1.0 0.00 0.00 0.00 87 1008.9
20260901074515 56 160 1.0 2.0 0.00 0.00 0.00 87 1008.8
20260901073011 56 165 0.0 2.0 0.00 0.00 0.00 87 1008.9
20260901071509 56 157 0.0 1.0 0.00 0.00 0.00 88 1008.9
20260901070008 56 142 0.0 2.0 0.00 0.00 0.00 88 1008.9
20260901064508 56 149 0.0 1.0 0.00 0.00 0.00 88 1009.1
20260901063006 57 154 0.0 3.0 0.00 0.00 0.00 87 1009.2
20260901061509 58 153 0.0 1.0 0.00 0.00 0.00 86 1009.2
20260901060005 58 141 0.0 2.0 0.00 0.00 0.00 86 1009.3
20260901054505 57 159 0.0 2.0 0.00 0.00 0.00 87 1009.3
20260901053005 58 147 0.0 2.0 0.00 0.00 0.00 87 1009.3
20260901051504 58 188 1.0 3.0 0.00 0.00 0.00 86 1009.3
20260901050003 58 203 0.0 2.0 0.00 0.00 0.00 86 1009.2